weather.gov     
National Weather Service

Regional Weather Roundup
NWS Homepage
This page is being discontinued on March 12, 2014.
The same data is available at this site. Please update your bookmarks.
Thank you, and we apologize for the inconvenience.
Please send an email to SR-SRH.Webmaster@noaa.gov with any concerns.


Current Version
Previous Version:    01  02  03  04  05  06  07  08  09  10  11  12  13  14  15  16  17  18  19  20  21  22  23  24  25  26  27  28  
[Printable]
048
ASUS42 KKEY 021410
RWRKEY

FLORIDA REGIONAL WEATHER ROUNDUP FOR THE FLORIDA KEYS
NATIONAL WEATHER SERVICE KEY WEST FLORIDA
1000 AM EDT THU OCT 02 2014

...SOUTH FLORIDA AND THE KEYS...

CITY           SKY/WX    TMP DP  RH WIND       PRES   REMARKS
FORT MYERS     SUNNY     80  76  87 W5        30.04R
SW REGIONAL AP MOSUNNY   83  75  77 CALM      30.05R HX  90
NAPLES         PTSUNNY   86  76  71 NW7       30.04R HX  96
MIAMI          MOSUNNY   85  76  74 W3        30.05R HX  94
WEST KENDALL   MOSUNNY   86  76  71 VRB3      30.05R HX  96
HOMESTEAD      DRIZZLE   84  77  79 W8        30.05R HX  94
MARATHON       MOSUNNY   88  79  74 S5        30.05R HX 103
BOCA CHICA NAS MOSUNNY   87  76  69 S7        30.05R HX  97
KEY WEST INTL  MOSUNNY   85  76  74 S5        30.05S HX  94

...INTERNATIONAL WEATHER...

CITY           SKY/WX    TMP DP  RH WIND       PRES   REMARKS
NASSAU BAHAMAS MOSUNNY   86  75  70 SW12      30.06R HX  95
CANCUN MEXICO  PTSUNNY   84  77  79 SE13      30.01R HX  94
COZUMEL MEXICO MOSUNNY   81  77  89 SE9       30.00R

ADJACENT COASTAL WATERS...

STATION/POSITION TIME  SKY/WX   TEMP    WIND        PRES    WAVE
                                AIR SEA DIR/SP/G            HT/PER
                 (UTC)          (F)     (DEG/KT/KT) (MB)    (FT/S)
PULASKI SHOAL LI 1300            84      80/  3/  4 1016.9R
SAND KEY         1340            84     170/  5/  6 1017.5R
SOMBRERO KEY     1400            84     220/  5/  5 1018.4R
LONG KEY         1300            85 87  220/  4/  4 1018.0R
MOLASSES REEF    1400            83 85  300/  3/  4 1017.5R
FOWEY ROCKS      1400            82 85  290/  5/  5 1017.8R
Buoy 42080       NOT AVBL

$$




U.S. Dept. of Commerce
NOAA National Weather Service
1325 East West Highway
Silver Spring, MD 20910
E-mail: w-nws.webmaster@noaa.gov
Page last modified: May 16, 2007
NATIONAL WEATHER SERVICE: for Safety, for Work, for Fun - FOR LIFE